RH
100 100 100 100 100 98 97 98 100 100 98 93 89 88 89 91 93 94 93 92 90 88 87 88 89 90 91 93 92 91 91 90 88 84 79 75 71 66 63 60 56 51 45 41 39 36 31 28 26 24 23 22 20 19 17 16 14 12 11 10 10 9 10
100 100 101 100 100 100 99 100 101 100 97 93 91 92 94 95 95 94 93 92 90 89 90 90 90 90 91 93 93 94 95 92 87 81 75 71 67 63 60 58 55 50 42 36 32 29 26 25 25 24 22 20 17 15 13 12 11 11 10 10 10 11 12
101 100 100 100 100 100 100 100 101 101 98 96 96 98 99 98 97 97 96 92 91 93 95 94 93 92 91 92 94 95 95 91 86 80 76 71 67 63 60 56 52 45 36 30 26 25 25 24 22 20 17 15 13 12 12 11 11 11 11 13 14 15 16
100 100 100 100 100 100 100 101 101 101 100 99 99 100 100 100 99 99 95 92 95 99 100 97 94 93 95 95 95 94 91 88 84 80 75 71 68 65 59 51 43 36 32 28 25 24 23 20 17 15 13 12 12 12 13 13 13 14 16 19 21 21 22
100 100 100 100 100 100 100 100 100 101 100 100 100 100 100 100 100 97 95 96 100 101 101 98 95 96 97 96 93 89 88 86 82 77 74 71 67 60 51 43 37 34 31 27 24 21 17 14 13 12 13 14 14 14 15 14 16 21 25 26 27 27 27
100 100 100 100 100 100 100 100 100 100 100 100 100 100 101 99 98 97 98 101 102 99 97 96 96 98 98 95 91 88 85 83 79 76 72 67 60 50 42 37 34 32 28 23 19 15 13 13 13 14 15 15 15 16 17 21 28 32 31 30 30 31 30
100 100 100 100 100 100 100 101 101 100 100 100 100 101 100 99 98 98 100 102 100 97 96 97 99 100 97 94 91 87 84 81 78 74 66 58 51 44 39 35 30 26 20 16 14 12 13 14 15 16 16 16 17 19 24 34 41 38 33 32 34 32 30
100 100 100 100 100 100 100 101 101 100 100 100 101 100 99 99 99 100 101 99 97 97 99 100 99 96 95 93 90 86 84 80 75 68 59 51 46 41 36 29 23 19 15 13 13 13 15 16 16 17 17 18 20 24 37 49 46 36 34 36 35 33 32
100 100 100 100 100 100 101 101 100 100 100 101 100 99 99 100 101 101 99 97 96 98 98 97 95 94 94 93 89 86 83 77 68 60 54 49 43 36 28 21 17 14 13 14 15 15 17 17 17 18 19 21 23 31 49 56 44 34 37 39 37 36 36
100 100 100 100 100 100 100 101 100 100 100 100 100 99 100 100 101 100 99 98 99 98 96 95 94 93 92 90 87 84 78 70 62 56 51 44 35 26 20 16 14 13 15 16 17 17 18 18 18 21 24 28 33 44 56 54 40 37 41 41 40 41 42
100 100 100 100 101 101 100 100 100 100 100 100 100 100 100 100 100 100 100 99 97 95 95 95 94 91 90 88 84 77 69 63 58 52 44 34 25 19 15 14 14 15 17 18 18 19 20 19 21 27 35 41 46 56 59 47 38 41 44 43 45 47 48
100 100 100 100 101 101 100 100 100 100 100 100 100 100 100 100 100 100 100 98 96 94 94 93 91 89 86 84 79 71 65 60 53 44 33 23 18 15 13 14 16 17 18 19 20 22 21 22 26 34 49 60 60 61 56 42 38 45 47 48 51 52 54
100 101 101 100 101 101 100 100 100 101 101 100 100 100 101 100 98 96 94 93 95 98 98 97 94 89 83 79 74 69 63 55 44 32 23 17 15 14 14 17 19 19 19 19 22 24 23 27 32 39 56 70 67 58 48 39 41 48 50 54 58 57 55
101 101 101 100 101 101 100 100 100 100 100 100 100 100 100 99 96 91 88 87 89 93 97 97 94 88 81 76 70 65 57 46 32 23 18 16 15 15 17 20 20 22 25 24 23 23 24 33 43 50 59 64 60 51 42 38 45 52 56 60 62 58 56
101 101 101 101 101 100 100 100 100 100 100 100 100 100 100 97 92 89 87 86 88 91 92 89 84 80 76 70 65 58 46 33 23 18 16 16 17 19 20 20 22 28 33 34 33 31 28 31 42 55 61 59 51 44 38 39 48 56 60 61 60 58 60
101 101 101 100 100 100 100 100 100 100 100 100 100 100 99 94 90 88 88 89 94 96 92 85 79 75 70 64 58 47 34 24 18 15 15 16 19 21 20 21 27 35 39 40 43 44 42 37 39 48 54 53 47 40 36 41 51 58 62 62 60 61 64
101 100 100 100 100 100 100 100 100 100 100 100 100 100 97 93 91 90 90 94 99 97 90 84 79 74 68 60 49 35 24 19 15 13 13 17 20 21 21 25 33 41 44 44 43 44 46 47 47 48 48 46 43 39 36 41 52 62 67 66 62 62 65
100 100 100 100 100 100 100 100 100 100 100 100 100 99 97 94 92 92 95 100 100 93 87 83 78 72 66 54 39 26 20 17 15 13 13 15 18 20 23 30 36 39 42 45 44 42 44 46 48 49 47 43 40 39 39 43 53 64 67 65 61 61 65
100 101 100 100 100 100 100 100 100 100 100 100 100 100 99 96 94 95 100 101 96 90 85 80 75 70 60 43 29 21 17 16 15 15 14 16 18 18 23 32 36 34 35 40 44 45 44 42 42 44 44 40 38 39 42 48 57 64 66 64 63 63 65
100 100 100 100 100 100 100 100 100 100 100 100 102 101 100 99 98 99 101 98 93 88 84 78 73 65 50 34 23 18 17 16 16 16 17 18 18 19 24 29 31 31 34 39 44 46 43 40 40 41 41 38 36 37 42 50 59 65 67 66 63 63 67
100 100 100 100 100 100 100 100 100 100 100 102 102 101 102 103 102 101 100 96 91 88 83 78 71 58 41 27 20 17 17 18 18 18 18 18 19 22 26 27 27 30 35 40 44 46 44 40 39 40 40 38 36 36 41 50 59 64 66 64 60 60 65
100 100 100 100 100 100 100 100 100 101 101 101 101 101 103 104 103 101 99 95 91 89 84 77 66 50 33 23 18 17 19 20 21 21 20 20 21 22 23 24 27 32 36 40 44 47 47 45 41 39 39 38 36 37 41 49 59 64 63 60 57 59 64
100 100 100 100 100 100 100 101 101 102 101 101 102 104 105 105 104 103 101 97 93 90 84 74 59 42 27 20 17 18 20 21 22 22 23 24 23 21 21 24 28 31 34 38 42 45 48 50 47 42 40 39 37 37 41 48 57 63 63 59 56 59 67
100 100 100 100 100 101 102 102 100 101 102 102 104 105 104 103 103 104 103 99 94 90 82 69 52 35 24 18 18 20 21 23 23 24 25 25 23 21 22 26 30 32 34 36 38 39 43 48 50 47 44 41 38 37 40 48 56 61 61 58 57 64 73
100 100 100 100 101 101 102 102 101 102 104 105 107 106 104 102 101 103 105 103 97 89 77 60 44 31 22 18 18 21 23 24 25 26 26 25 23 23 24 27 30 33 35 36 37 37 39 43 47 49 48 45 42 39 41 47 54 57 58 55 57 66 74
100 100 100 101 102 102 101 102 104 104 104 104 105 105 105 104 102 102 106 107 99 85 68 51 37 27 20 18 19 22 24 25 26 27 27 27 26 25 25 27 30 32 34 37 38 38 38 39 42 46 48 47 47 45 43 47 53 56 55 54 56 65 72
100 101 102 101 101 102 103 104 105 106 105 104 103 104 105 105 103 104 107 104 90 72 57 43 32 24 20 20 22 24 25 25 26 27 28 29 29 27 26 27 29 30 33 37 40 39 39 38 39 42 45 47 49 49 47 48 52 56 55 55 59 67 75
101 102 102 101 100 102 103 103 105 106 105 104 102 102 103 103 104 105 102 88 70 56 46 36 27 24 23 22 23 26 27 27 27 27 28 30 31 30 29 29 29 30 32 36 39 39 39 38 37 38 41 44 47 49 50 50 52 55 56 57 60 68 77
99 101 102 100 100 102 102 102 104 106 105 104 103 104 106 106 102 93 80 63 51 43 35 29 26 26 26 25 25 27 29 29 29 29 30 31 32 32 32 32 32 32 33 35 37 38 39 40 38 37 38 40 42 45 47 49 52 54 55 55 58 64 74
100 103 102 100 100 102 103 102 103 103 103 103 104 105 101 90 75 61 50 43 38 33 27 25 26 27 26 25 25 26 29 30 31 31 32 33 34 34 35 36 35 35 34 34 34 36 39 40 40 39 38 38 39 41 43 45 48 50 51 52 55 59 67
105 104 102 100 100 100 102 104 104 103 102 101 97 88 72 53 40 34 33 31 29 27 26 26 27 26 26 25 25 26 29 31 32 33 35 37 38 39 40 40 40 39 38 36 35 35 36 38 40 41 41 40 39 39 41 43 45 46 47 49 51 55 62
107 106 104 103 101 99 98 96 93 91 88 81 69 54 40 30 28 28 28 28 27 26 26 26 26 26 26 26 27 29 31 33 35 36 38 41 44 46 47 47 46 46 46 44 41 38 37 37 38 39 41 42 42 42 43 45 47 49 51 52 55 60 68
107 107 105 104 102 98 91 81 70 59 49 40 30 24 22 23 25 28 30 31 30 27 25 25 25 25 26 28 30 31 32 35 37 39 42 47 50 53 55 56 56 55 55 55 53 49 46 42 40 39 39 40 41 42 43 45 48 51 53 55 61 70 81
108 107 103 99 93 84 72 60 47 34 24 18 16 18 20 22 23 27 32 32 29 26 26 25 25 25 27 29 31 33 35 37 39 41 45 51 56 60 63 66 66 64 65 66 64 61 58 55 52 49 46 44 43 44 45 47 50 54 58 64 72 82 92
103 101 96 89 78 63 48 35 25 18 16 17 19 21 22 22 23 27 30 30 28 27 27 27 27 28 29 31 33 36 37 40 43 46 51 57 63 68 71 73 74 73 74 75 75 73 71 69 65 63 61 59 58 57 58 61 65 69 75 82 86 89 91
81 78 73 65 53 39 28 20 17 16 19 21 22 22 22 22 24 25 26 28 29 28 28 30 31 32 33 35 38 40 43 46 51 57 62 68 73 78 80 81 82 82 83 85 86 86 85 83 80 79 78 76 76 77 78 81 85 88 93 96 95 91 90
Wind_Speed
73 73 72 72 72 72 72 73 73 74 75 75 75 75 75 75 74 74 74 74 74 75 74 72 71 71 72 73 74 74 75 76 78 79 81 82 84 86 88 89 91 92 90 88 90 94 96 97 97 99 101 102 103 103 103 103 103 101 98 95 92 89 86
72 72 72 72 72 73 73 73 73 74 75 75 75 75 75 74 74 73 73 73 74 74 73 71 71 71 72 72 73 74 76 78 79 81 83 84 86 88 89 91 93 94 93 91 92 94 98 100 99 100 102 104 104 102 100 98 95 92 88 85 82 79 77
71 71 72 72 73 73 73 73 74 74 75 75 75 75 74 74 73 72 72 73 73 72 71 71 71 71 72 73 74 75 77 79 81 83 85 86 88 90 91 92 94 95 95 95 94 96 98 101 102 102 102 101 99 94 90 87 83 80 77 75 73 71 69
71 72 72 72 72 72 73 73 74 74 75 75 74 74 73 72 71 71 73 73 72 71 71 71 71 71 72 73 75 76 78 81 83 85 87 88 90 91 92 93 95 96 97 98 97 97 99 102 102 99 95 92 88 82 78 76 73 70 69 68 67 65 63
71 71 71 71 71 72 72 73 73 74 74 73 73 73 72 71 71 72 72 71 70 71 71 71 71 72 73 75 76 78 80 83 86 87 89 90 91 92 93 94 95 97 98 100 100 99 100 100 97 91 84 79 76 72 70 68 66 64 63 62 62 61 59
70 70 70 71 71 72 72 73 73 73 73 72 72 71 70 70 72 72 71 70 70 70 70 71 72 73 75 76 78 80 83 85 87 89 90 90 92 93 94 95 96 97 99 100 100 99 96 91 86 79 73 69 67 65 64 63 61 59 58 57 57 57 56
69 69 70 71 71 71 72 72 72 71 71 71 70 69 70 71 71 70 69 69 70 70 70 71 72 74 76 78 80 83 85 87 89 90 91 91 93 94 95 96 97 98 99 99 97 93 87 80 75 71 66 63 62 61 60 58 57 56 54 53 53 54 53
69 70 70 71 71 71 71 71 70 70 70 69 69 70 71 71 69 68 68 69 69 69 70 71 73 75 77 80 82 84 86 88 89 90 91 92 93 95 95 96 97 97 96 93 88 83 77 71 68 65 62 60 59 58 57 55 54 53 51 50 51 52 51
69 70 70 71 71 71 70 69 69 69 68 68 69 70 70 68 68 68 68 68 68 69 70 72 74 76 79 81 84 85 87 88 90 91 92 93 94 95 96 96 95 93 89 84 79 74 69 66 62 60 58 57 56 55 54 53 52 50 49 49 50 50 49
70 70 71 71 70 69 69 68 68 67 68 69 70 69 68 67 67 67 67 68 68 69 71 73 76 78 80 83 84 85 87 88 90 91 92 93 94 95 95 94 91 86 80 76 72 68 64 61 57 56 55 54 53 53 52 50 49 49 49 49 48 48 48
70 70 70 70 69 68 68 67 67 67 68 69 68 67 66 66 66 66 67 68 69 70 72 75 77 80 81 83 84 86 87 88 90 91 92 92 93 94 93 90 84 78 73 70 67 63 60 56 54 52 52 52 51 51 50 49 48 48 48 48 48 47 48
70 69 69 69 68 68 67 67 67 67 68 68 67 66 66 65 66 66 67 68 70 72 74 77 79 80 81 83 84 86 87 88 89 90 91 91 91 91 87 82 77 72 68 65 62 59 56 53 51 49 48 49 50 50 49 48 47 47 47 48 48 47 47
69 68 68 68 68 67 67 66 66 66 66 66 66 66 65 65 66 66 67 68 71 74 76 78 80 81 81 82 84 85 86 88 89 89 89 89 88 84 79 74 71 68 64 61 59 57 53 51 50 47 45 46 48 49 48 47 46 47 48 47 47 47 47
68 68 68 67 67 67 66 65 64 65 65 65 65 65 66 66 67 67 68 70 72 75 77 78 80 81 81 82 83 84 85 86 87 86 86 84 81 76 72 68 65 62 60 60 59 56 51 48 48 46 43 45 47 47 47 47 47 47 48 47 46 46 46
68 67 67 66 66 65 64 63 63 64 64 64 64 65 66 67 68 68 70 72 74 76 77 79 80 80 81 82 83 84 84 84 84 83 81 77 73 70 67 63 59 56 56 58 59 56 51 47 45 44 42 44 46 46 45 47 48 48 47 46 45 45 46
67 66 66 65 64 63 62 61 62 63 63 64 65 66 67 68 69 70 72 74 75 77 78 79 80 81 81 82 82 83 84 84 83 80 75 70 67 64 62 57 54 53 54 55 56 53 51 49 46 43 41 42 45 46 45 47 48 47 45 45 45 46 46
66 65 64 63 62 61 60 60 60 62 63 64 65 67 68 69 71 72 74 75 76 77 78 80 81 81 82 82 82 83 82 82 82 76 68 64 62 59 56 52 49 50 53 55 54 51 49 48 47 45 42 40 43 45 46 47 47 45 45 46 46 46 46
64 63 62 61 61 60 59 59 60 62 63 64 66 68 70 71 73 74 75 75 76 78 78 79 80 81 82 82 81 81 80 78 77 71 64 60 58 55 51 48 47 49 51 52 53 51 49 47 46 45 43 41 41 44 47 47 46 45 47 47 46 46 46
62 61 61 60 59 59 59 59 60 62 64 65 68 70 72 73 74 74 75 76 77 78 78 79 79 80 81 81 79 78 76 72 70 66 62 59 56 53 48 45 46 48 48 49 51 50 49 48 46 45 43 41 41 43 47 48 47 46 47 46 45 46 46
60 60 59 58 58 58 59 59 60 62 65 67 70 72 74 74 75 75 76 77 78 78 78 79 79 79 79 79 77 75 72 67 64 62 59 56 55 52 49 48 47 46 45 46 48 49 49 48 46 45 43 41 41 43 47 48 48 48 47 46 46 47 46
58 58 57 57 57 58 59 60 61 64 67 70 72 73 75 76 76 76 77 78 78 78 78 78 79 78 77 75 73 71 67 63 60 59 57 55 52 51 51 51 48 44 43 44 46 48 49 48 46 45 44 42 42 43 46 48 48 48 47 47 47 47 46
57 56 56 57 57 58 59 61 64 66 69 71 73 74 75 76 77 77 78 78 78 78 79 78 78 77 75 73 70 66 62 59 57 56 55 54 52 51 51 50 47 43 42 43 44 46 47 47 46 45 44 43 42 43 46 47 47 47 47 48 47 47 45
55 56 56 56 58 59 61 64 66 68 70 72 73 75 76 77 78 78 79 79 78 79 79 78 77 75 72 70 67 62 58 56 55 54 53 53 53 51 50 48 46 44 41 42 43 44 44 45 46 46 44 43 43 44 46 47 47 47 48 48 47 46 46
55 56 56 57 59 61 64 66 68 70 71 73 74 76 76 77 77 78 80 80 80 79 79 77 75 73 70 67 63 58 55 53 52 52 52 52 52 50 48 47 46 44 42 41 42 42 41 42 44 45 45 44 44 45 46 47 47 48 49 48 47 47 47
55 56 57 59 61 64 66 68 69 70 72 73 75 76 77 77 77 78 80 81 81 80 79 77 73 70 67 64 59 55 52 50 50 51 52 52 50 47 46 46 45 43 42 42 42 41 40 39 40 43 44 44 44 45 46 47 48 48 48 48 47 47 48
57 58 60 62 64 66 67 69 70 71 72 73 75 76 77 77 78 79 80 82 82 81 79 76 72 68 64 60 55 52 50 49 50 50 51 50 49 46 44 44 43 42 41 41 41 41 39 38 38 40 42 43 44 45 47 48 48 49 49 48 48 48 48
59 61 63 65 66 67 68 69 71 72 73 74 75 76 77 78 79 80 82 83 82 80 77 73 69 65 61 56 52 50 49 49 49 49 49 49 48 47 44 42 42 42 41 39 39 40 40 38 36 37 39 41 43 45 47 48 49 49 49 49 48 48 48
62 64 66 67 68 69 70 70 71 72 73 74 75 76 78 79 80 82 83 82 80 77 74 70 66 61 57 53 50 49 49 49 49 48 48 47 47 46 44 43 42 41 40 39 39 39 40 39 37 35 37 39 42 44 46 48 49 50 50 50 49 49 49
64 66 67 68 69 70 71 72 72 73 74 75 75 77 79 80 81 82 81 79 76 73 69 64 60 57 53 50 49 48 48 48 49 48 47 46 46 45 44 43 42 41 40 39 39 39 39 39 38 36 36 38 41 43 45 47 49 50 50 51 50 50 49
67 68 69 70 71 72 72 73 73 73 74 75 76 78 80 81 80 78 75 72 71 68 64 59 55 52 50 48 48 47 46 47 47 47 46 45 46 45 44 43 42 41 40 39 38 38 38 39 39 38 38 38 40 42 44 46 47 49 50 51 51 50 50
69 70 71 72 72 71 72 72 73 74 75 76 78 79 79 78 75 72 69 66 65 62 58 54 52 49 47 47 47 46 46 46 47 47 46 45 45 45 44 43 43 42 41 40 39 38 37 37 38 40 40 40 41 41 43 44 46 47 48 49 50 49 49
70 71 72 72 72 72 72 72 73 75 75 76 76 75 73 70 68 66 64 63 60 57 53 50 48 46 45 45 45 45 45 46 47 47 47 46 45 44 44 44 43 42 42 41 39 39 37 36 37 39 40 41 42 43 43 44 45 46 47 48 48 49 49
70 71 71 71 72 73 74 75 75 75 74 72 70 67 65 63 61 59 58 58 56 53 50 48 46 45 44 43 44 45 45 46 46 47 48 47 47 46 45 45 43 43 43 42 40 40 39 38 38 38 38 39 41 42 42 43 44 45 46 46 47 47 48
70 71 72 73 74 75 76 76 75 73 70 66 63 61 59 58 56 54 53 53 52 50 48 47 46 45 43 43 43 44 44 45 45 46 47 47 47 47 47 46 44 44 45 44 42 41 41 40 40 39 39 38 39 39 40 40 41 42 43 44 44 45 46
70 72 73 75 76 76 75 73 70 67 63 60 58 57 56 55 53 51 50 50 50 49 47 47 46 46 45 44 44 44 44 45 45 45 46 46 47 47 48 47 46 46 46 45 44 43 42 41 42 41 41 40 39 39 39 39 40 41 41 42 43 43 44
71 72 73 74 74 73 71 68 65 61 58 56 55 54 53 52 51 50 50 49 49 49 48 48 47 47 46 46 46 46 46 46 46 46 46 46 47 47 48 47 47 47 46 46 46 44 43 43 43 43 42 42 41 40 40 40 40 41 41 42 43 44 44
Wind_Direction
290 289 289 288 288 289 289 289 290 290 290 291 292 292 292 293 292 291 291 290 288 287 287 287 287 286 286 286 286 287 287 288 288 288 288 288 288 288 289 289 289 288 288 288 288 288 288 288 288 288 287 286 285 285 284 284 283 281 280 277 275 272 270
289 288 288 288 288 289 289 290 290 290 291 292 292 292 292 292 291 291 290 288 287 287 288 287 287 287 287 287 287 288 289 289 289 289 289 289 289 289 290 290 290 290 290 290 289 289 290 289 289 288 288 287 286 285 284 283 281 279 277 274 271 268 265
288 287 287 287 288 288 289 290 290 290 291 291 292 292 292 291 290 289 288 287 287 288 288 287 287 287 287 288 289 289 290 290 290 290 291 291 291 291 291 291 291 291 292 291 291 291 290 290 289 289 288 287 286 284 282 280 278 275 272 269 267 264 261
287 286 286 287 288 288 289 289 290 290 290 291 291 291 290 290 289 287 286 287 288 288 288 288 288 288 289 289 290 290 290 291 291 291 292 292 292 292 292 292 293 293 293 293 292 292 291 290 290 289 288 286 285 283 280 277 274 270 268 265 263 261 259
286 286 286 287 288 288 289 289 290 290 290 290 290 289 289 288 287 286 287 288 288 288 288 289 289 290 290 290 291 291 291 291 292 292 293 293 293 293 293 294 294 294 294 294 293 293 292 291 290 288 287 285 283 280 276 273 270 266 264 262 260 259 258
286 286 286 287 288 288 289 289 289 289 289 289 289 288 287 286 285 286 287 288 288 288 289 290 290 291 291 291 292 292 292 292 293 293 293 294 294 294 294 295 295 295 294 294 294 293 292 290 289 288 285 283 280 276 273 270 267 264 260 258 257 258 257
286 286 287 288 288 289 289 289 289 289 289 288 287 286 285 284 285 287 288 288 288 289 290 290 291 291 292 292 292 293 293 294 294 294 294 295 295 295 295 295 295 295 295 294 293 292 291 290 288 286 284 280 277 274 270 267 264 261 257 254 255 256 256
287 288 288 289 289 289 289 289 290 290 289 287 285 284 284 285 286 287 287 287 288 290 291 291 291 292 292 293 293 294 294 294 295 295 295 296 296 296 296 296 296 295 295 294 293 292 291 289 287 285 282 279 275 272 269 266 261 257 253 252 253 253 253
288 289 289 289 290 290 290 290 290 289 287 285 283 284 285 286 287 287 287 288 289 290 291 291 292 293 293 294 294 295 295 295 296 296 297 297 297 297 296 296 296 295 294 293 292 291 290 288 286 284 281 277 274 270 267 263 258 253 250 250 250 251 252
290 290 290 290 290 291 291 291 289 287 285 283 283 285 286 286 286 287 288 289 290 291 291 292 293 293 294 295 295 295 296 296 297 297 297 297 297 297 297 296 296 294 293 292 291 290 289 287 285 283 280 277 273 269 265 261 254 249 248 249 249 250 252
290 291 291 291 291 291 291 290 288 285 284 284 285 286 286 286 287 288 289 290 291 292 292 293 294 295 295 296 296 296 296 297 298 298 298 297 297 297 297 296 295 293 292 292 291 290 288 286 284 281 278 276 272 267 263 257 250 247 248 249 249 249 250
291 292 292 292 292 291 290 289 287 285 284 285 285 286 286 287 288 289 290 291 292 293 293 294 295 295 296 296 296 297 298 298 298 298 298 298 297 297 296 295 294 293 292 291 290 288 287 285 282 279 276 274 271 266 261 254 248 246 247 248 249 250 250
292 293 293 293 292 291 290 288 286 285 285 285 286 287 287 287 288 289 291 292 293 294 295 296 296 296 296 297 297 298 299 299 299 298 298 297 297 296 295 294 293 293 292 290 288 287 286 284 281 278 275 272 269 265 259 252 246 246 247 248 249 250 250
293 294 293 292 291 290 289 287 286 285 285 286 287 287 287 288 289 291 292 293 294 295 295 296 296 296 297 297 298 299 299 299 298 298 297 296 296 294 293 292 293 293 292 290 288 287 285 283 281 279 276 271 267 263 257 249 245 246 247 248 249 250 251
294 294 293 292 290 289 288 286 285 285 286 287 287 287 288 289 291 293 294 294 295 295 295 295 295 296 297 298 299 299 298 298 297 297 296 295 293 292 291 292 292 291 289 288 287 288 287 284 280 278 275 272 267 262 254 247 245 247 248 249 250 251 252
294 293 292 291 289 287 286 286 286 286 287 287 288 288 289 291 293 294 295 296 296 296 296 296 296 297 298 298 299 299 298 297 297 296 294 292 290 290 290 291 291 289 287 285 285 286 287 285 282 278 274 270 266 261 252 245 245 248 250 251 251 252 253
294 293 291 289 287 287 287 287 287 287 287 288 289 290 291 293 294 295 296 296 296 296 296 297 298 298 299 299 299 299 298 297 296 295 293 289 288 289 289 290 289 286 285 284 284 285 284 283 282 279 275 268 262 257 251 245 246 249 250 251 252 253 255
293 291 289 288 287 287 287 287 287 287 288 289 290 291 293 294 295 296 296 296 296 296 297 297 298 299 300 300 300 299 298 297 295 294 292 289 288 288 288 288 286 283 282 283 284 285 283 281 279 277 274 269 259 253 250 247 247 248 249 251 253 255 256
291 289 288 287 287 287 288 288 288 289 289 290 291 293 294 295 296 296 296 296 296 296 297 298 299 300 300 300 299 298 297 295 293 292 292 291 289 289 288 285 282 281 282 282 283 283 282 280 278 275 272 267 258 250 247 248 249 250 251 253 256 259 260
290 289 288 288 288 288 289 289 289 290 291 292 293 294 295 296 296 296 296 296 296 297 298 298 299 300 300 300 299 297 295 293 291 291 290 290 290 290 289 285 283 282 282 281 280 280 279 278 277 274 271 266 257 249 245 246 249 250 252 254 256 258 259
289 289 289 289 289 289 290 290 291 292 293 294 295 295 296 296 296 296 296 296 297 297 298 299 300 300 300 299 297 296 294 292 291 290 289 289 289 289 288 286 286 286 283 280 278 278 278 277 275 273 270 265 257 250 246 247 249 251 253 255 256 258 258
290 289 289 290 290 291 291 292 293 294 295 295 296 296 296 296 296 296 296 296 297 297 298 299 300 300 299 297 295 293 291 290 289 288 289 289 289 288 287 288 289 287 282 279 277 276 276 276 274 271 268 263 257 251 248 248 250 252 255 256 258 260 260
291 291 291 291 291 292 293 294 295 296 296 296 296 296 296 296 296 296 296 296 297 297 298 299 300 299 297 295 293 291 289 288 287 287 287 287 287 288 290 291 290 287 283 278 275 274 273 272 271 270 267 262 256 251 248 249 251 253 256 258 261 263 264
292 292 292 292 293 294 295 295 296 296 296 296 296 296 296 296 296 296 296 296 297 297 298 299 299 297 295 293 291 289 287 286 285 285 285 284 286 289 291 291 290 288 285 280 276 274 271 268 267 267 265 262 257 252 249 250 251 253 256 259 262 265 266
293 293 293 294 295 295 296 296 297 297 296 296 296 296 296 296 296 296 296 296 297 298 299 299 297 296 293 291 289 286 285 284 283 282 282 283 286 289 289 289 289 288 285 282 280 277 273 268 264 262 262 260 257 253 251 251 252 254 256 259 262 264 265
294 294 295 296 296 296 296 297 297 297 296 296 296 296 296 296 296 296 296 297 297 298 298 297 296 294 292 289 287 284 282 281 280 280 281 283 286 287 288 288 288 287 285 284 282 279 276 272 265 260 259 257 256 254 253 253 254 256 258 260 263 265 267
296 296 296 297 297 297 297 297 297 297 296 296 296 296 296 296 296 296 296 297 297 297 296 295 294 292 290 288 285 282 280 279 279 279 280 282 283 285 287 287 286 286 285 284 281 279 277 274 268 262 257 255 253 253 253 253 255 257 259 262 264 267 269
297 298 297 297 297 297 297 297 297 297 296 296 296 296 296 296 296 297 297 297 296 295 294 293 293 291 288 285 282 280 279 279 279 279 279 280 282 283 285 286 286 286 285 283 280 277 276 275 271 265 258 254 251 251 251 252 254 256 259 261 263 266 268
298 298 298 298 298 298 298 298 297 297 297 297 297 296 296 297 297 297 296 296 295 293 293 292 291 289 286 282 279 277 276 276 277 277 278 279 280 281 283 284 284 284 283 281 279 276 274 273 271 267 261 256 251 250 250 251 253 255 257 259 261 264 265
299 299 299 298 298 298 298 298 298 297 297 297 297 297 297 297 297 296 295 294 293 293 293 293 290 286 283 279 276 275 275 275 276 277 278 278 279 280 281 282 282 282 281 279 277 275 273 270 269 268 264 259 255 252 251 251 252 254 255 258 260 262 263
300 300 299 299 299 299 298 298 298 298 298 298 298 298 298 297 297 296 295 294 293 293 293 292 288 285 282 279 277 276 276 277 277 277 277 278 278 279 280 280 280 280 280 279 277 275 272 268 266 265 264 262 260 257 256 255 255 256 257 259 261 263 265
301 300 300 300 300 299 299 298 298 298 299 299 299 298 298 297 296 296 296 295 294 294 292 289 286 283 281 279 278 278 278 277 277 278 278 278 278 279 279 279 279 279 279 278 277 276 273 270 266 263 261 260 260 259 258 258 258 259 260 261 262 264 266
301 301 301 301 300 300 300 299 299 300 300 299 298 297 296 296 295 295 294 294 293 293 291 289 286 283 280 278 276 276 276 276 276 277 278 279 279 279 279 278 279 279 278 277 277 276 275 273 270 266 263 260 259 258 257 257 257 258 258 259 260 262 264
302 302 302 301 301 301 301 301 301 301 301 300 299 298 297 296 296 295 293 292 291 291 290 288 286 283 280 278 276 275 274 274 274 274 275 276 277 278 278 278 278 278 277 277 276 275 275 274 273 271 268 265 263 262 260 259 259 259 259 259 260 261 263
303 302 302 302 302 301 302 302 302 301 301 300 299 298 297 297 297 296 293 291 291 290 289 287 285 283 281 279 277 276 275 274 273 273 273 274 274 275 276 276 276 276 276 276 275 275 274 273 273 272 271 269 268 266 265 264 264 263 263 264 264 265 266
303 303 302 302 302 302 302 302 302 301 301 300 299 298 297 297 296 295 293 291 290 289 287 286 284 283 282 280 279 277 276 275 274 273 273 273 273 273 274 274 274 274 274 274 274 274 273 272 271 271 271 270 269 268 267 266 266 266 266 267 268 269 270